Fort Knox, KY

3:12 PM EDT on September 26, 2016 (GMT -0400)
Godman Army Air Field

Weather History for KFTK - July, 2013

Change the Weather History Date:

Friday, July 12, 2013

  Actual Average Record
Temperature  
Mean Temperature 70 °F -  
Max Temperature 81 °F 83 °F 95 °F (2011)
Min Temperature 61 °F 64 °F 57 °F (2007)
Cooling Degree Days 6    
Growing Degree Days 20 (Base 50)    
Moisture  
Dew Point 58 °F    
Average Humidity 67    
Maximum Humidity 87    
Minimum Humidity 45    
Precipitation  
Precipitation 0.00 in - - ()
Sea Level Pressure  
Sea Level Pressure 30.04 in    
Wind  
Wind Speed 7 mph (North)    
Max Wind Speed 13 mph    
Max Gust Speed 23 mph    
Visibility 10 miles    
Events      
Averages and records for this station are not official NWS values.
T = Trace of Precipitation, MM = Missing Value Source: NWS Daily Summary

Daily Weather History Graph

Daily Weather History Graph

Search for Another Location

Airport or City:

Trip Planner

Search our weather history database for the weather conditions in past years. The results will help you decide how hot, cold, wet, or windy it might be!

Date:

Astronomy

Jul. 12, 2013 Rise Set
Actual Time 6:31 AM EDT 9:07 PM EDT
Civil Twilight 6:01 AM EDT 9:37 PM EDT
Nautical Twilight 5:22 AM EDT 10:15 PM EDT
Astronomical Twilight 4:40 AM EDT 10:58 PM EDT
Moon 10:42 AM EDT (7/12) 11:22 PM EDT (7/12)
Length of Visible Light 15h 36m
Length of Day
14h 35m
Waxing Crescent, 17% of the Moon is Illuminated
Jul 12
Waxing Crescent
Jul 15
First Quarter
Jul 22
Full
Jul 29
Last Quarter
Aug 6
New

Hourly Weather History & Observations

Time (EDT) Temp. Heat Index Dew Point Humidity Pressure Visibility Wind Dir Wind Speed Gust Speed Precip Events Conditions
12:58 AM 66.2 °F - 61.3 °F 84% 30.01 in 10.0 mi North 5.8 mph - N/A   Scattered Clouds
1:58 AM 66.7 °F - 60.1 °F 79% 30.01 in 10.0 mi NNE 5.8 mph - N/A   Clear
2:58 AM 66.6 °F - 59.7 °F 79% 30.00 in 10.0 mi North 6.9 mph - N/A   Scattered Clouds
3:58 AM 64.4 °F - 59.5 °F 84% 30.01 in 10.0 mi North 6.9 mph - N/A   Clear
4:58 AM 63.5 °F - 58.6 °F 84% 30.02 in 10.0 mi North 6.9 mph - N/A   Clear
5:58 AM 62.6 °F - 57.9 °F 85% 30.03 in 10.0 mi North 5.8 mph - N/A   Clear
6:58 AM 61.3 °F - 57.6 °F 87% 30.06 in 10.0 mi North 8.1 mph - N/A   Clear
7:58 AM 64.0 °F - 58.8 °F 83% 30.06 in 10.0 mi North 6.9 mph - N/A   Clear
8:58 AM 67.3 °F - 58.6 °F 74% 30.08 in 10.0 mi NNE 5.8 mph - N/A   Clear
9:58 AM 71.2 °F - 59.2 °F 66% 30.08 in 10.0 mi NNE 8.1 mph - N/A   Clear
10:58 AM 74.5 °F - 58.5 °F 57% 30.07 in 10.0 mi NE 9.2 mph - N/A   Clear
11:58 AM 76.8 °F - 57.9 °F 52% 30.07 in 10.0 mi NE 11.5 mph - N/A   Partly Cloudy
12:58 PM 77.9 °F - 56.7 °F 48% 30.06 in 10.0 mi NE 12.7 mph 23.0 mph N/A   Scattered Clouds
1:58 PM 78.6 °F - 57.4 °F 48% 30.05 in 10.0 mi NNE 8.1 mph 16.1 mph N/A   Partly Cloudy
2:58 PM 79.9 °F - 57.2 °F 46% 30.05 in 10.0 mi Variable 6.9 mph 17.3 mph N/A   Partly Cloudy
3:58 PM 80.2 °F 80.6 °F 57.9 °F 46% 30.04 in 10.0 mi NNE 10.4 mph - N/A   Partly Cloudy
4:58 PM 78.4 °F - 57.7 °F 49% 30.04 in 10.0 mi North 9.2 mph - N/A   Scattered Clouds
5:58 PM 79.5 °F - 56.3 °F 45% 30.01 in 10.0 mi NNE 10.4 mph - N/A   Scattered Clouds
6:58 PM 76.6 °F - 57.7 °F 52% 30.02 in 10.0 mi NNE 5.8 mph - N/A   Scattered Clouds
7:58 PM 76.1 °F - 57.7 °F 53% 30.03 in 10.0 mi North 4.6 mph - N/A   Scattered Clouds
8:58 PM 72.5 °F - 59.0 °F 62% 30.04 in 10.0 mi North 5.8 mph - N/A   Partly Cloudy
9:58 PM 66.7 °F - 61.3 °F 83% 30.04 in 10.0 mi North 1.2 mph - N/A   Clear
10:58 PM 64.2 °F - 58.6 °F 82% 30.05 in 10.0 mi North 3.5 mph - N/A   Clear
11:58 PM 63.3 °F - 58.5 °F 84% 30.04 in 10.0 mi NNW 5.8 mph - N/A   Clear